Location: Highridge
(54.0333°N, 114.1333°W)
Time: 14:40:56
(UTC+00:00)

XW-2B - Visible Passes

Search period start: 14 September 2024 00:00
Search period end: 24 September 2024 00:00
Orbit: 375 x 377 km, 97.5° (Epoch: 14 September)

Date Brightness Start Highest point End Pass type
(mag) Time Alt. Az. Time Alt. Az. Time Alt. Az.
14 Sep ? 02:28:08 10° S 02:30:57 42° W 02:33:50 10° NNW visible
15 Sep ? 03:02:39 10° SW 03:04:44 17° W 03:06:49 10° NW visible
17 Sep ? 02:36:43 10° SSW 02:39:26 33° W 02:42:12 10° NNW visible
18 Sep ? 03:10:21 10° SW 03:12:07 15° W 03:13:55 10° NW visible
20 Sep ? 02:42:02 10° SSW 02:44:41 29° W 02:47:20 10° NNW visible
21 Sep ? 03:14:43 10° WSW 03:16:17 14° W 03:17:51 10° WNW visible
22 Sep ? 02:13:01 10° S 02:15:56 72° WSW 02:18:53 10° NNW visible
23 Sep ? 02:44:06 10° SSW 02:46:42 28° W 02:49:18 10° NW visible
